Epoch 2008 Apr. 4.0 TT = JDT 2454560.5 T 2008 Mar. 19.32144 TT MPC q 3.3408225 (2000.0) P Q z -0.0001152 Peri. 357.12499 -0.69494887 +0.21729293 +/-0.0000714 Node 133.09228 +0.67703540 -0.12337045 e 1.0003850 Incl. 110.17665 +0.24221710 +0.96827863
m1 = 10.3 + 5 logΔ + 10.0 log r